| time (UTC) | temp F | wind direction | speed MPH | gust MPH | rain 1hr in | rain 24hr in | rain mn in | humidity % | barometer mb |
| 20260509190326 | 50 | 217 | 0.0 | 0.0 | 0.00 | 0.06 | 0.00 | 100 | 991.8 |
| 20260509184921 | 51 | 281 | 2.0 | 1.0 | 0.00 | 0.06 | 0.00 | 100 | 991.7 |
| 20260509183517 | 51 | 287 | 1.0 | 1.0 | 0.00 | 0.06 | 0.00 | 100 | 991.6 |
| 20260509182112 | 52 | 285 | 0.0 | 0.0 | 0.00 | 0.06 | 0.00 | 100 | 991.7 |
| 20260509180709 | 53 | 273 | 1.0 | 1.0 | 0.00 | 0.06 | 0.00 | 100 | 991.3 |
| 20260509175307 | 53 | 294 | 0.0 | 0.0 | 0.00 | 0.06 | 0.00 | 100 | 991.2 |
| 20260509173902 | 53 | 294 | 0.0 | 0.0 | 0.00 | 0.06 | 0.00 | 100 | 991.1 |
| 20260509172502 | 53 | 322 | 1.0 | 0.0 | 0.00 | 0.06 | 0.00 | 100 | 990.9 |
| 20260509171058 | 53 | 124 | 0.0 | 0.0 | 0.00 | 0.06 | 0.00 | 100 | 991.0 |
| 20260509165658 | 53 | 222 | 0.0 | 0.0 | 0.00 | 0.06 | 0.00 | 100 | 990.9 |
| 20260509164249 | 53 | 205 | 1.0 | 2.0 | 0.00 | 0.06 | 0.00 | 100 | 990.7 |
| 20260509161443 | 53 | 152 | 2.0 | 4.0 | 0.00 | 0.06 | 0.00 | 100 | 990.6 |
| 20260509160039 | 54 | 208 | 3.0 | 3.0 | 0.00 | 0.06 | 0.00 | 100 | 990.5 |
| 20260509154636 | 54 | 159 | 4.0 | 0.0 | 0.00 | 0.06 | 0.00 | 100 | 990.9 |
| 20260509153232 | 54 | 200 | 5.0 | 2.0 | 0.00 | 0.06 | 0.00 | 100 | 990.7 |
| 20260509151832 | 54 | 146 | 5.0 | 4.0 | 0.00 | 0.06 | 0.00 | 100 | 990.6 |
| 20260509150426 | 54 | 186 | 9.0 | 7.0 | 0.00 | 0.06 | 0.00 | 100 | 990.7 |
| 20260509143618 | 54 | 197 | 6.0 | 6.0 | 0.00 | 0.06 | 0.00 | 66 | 990.5 |
| 20260509142213 | 55 | 277 | 3.0 | 2.0 | 0.00 | 0.06 | 0.00 | 63 | 989.9 |
| 20260509140810 | 54 | 291 | 3.0 | 3.0 | 0.00 | 0.06 | 0.00 | 65 | 990.0 |
| 20260509135406 | 54 | 297 | 4.0 | 5.0 | 0.00 | 0.06 | 0.00 | 66 | 989.9 |
| 20260509134006 | 54 | 284 | 3.0 | 3.0 | 0.00 | 0.06 | 0.00 | 65 | 989.8 |
| 20260509132604 | 55 | 304 | 4.0 | 4.0 | 0.00 | 0.06 | 0.00 | 62 | 989.9 |
| 20260509125754 | 56 | 315 | 4.0 | 3.0 | 0.00 | 0.06 | 0.00 | 60 | 990.4 |
| 20260509124354 | 57 | 319 | 5.0 | 5.0 | 0.00 | 0.06 | 0.00 | 60 | 990.4 |
| 20260509122947 | 58 | 291 | 6.0 | 8.0 | 0.00 | 0.06 | 0.00 | 57 | 990.6 |
| 20260509121547 | 59 | 316 | 8.0 | 5.0 | 0.00 | 0.06 | 0.00 | 54 | 990.7 |
| 20260509114739 | 58 | 345 | 3.0 | 7.0 | 0.00 | 0.21 | 0.06 | 56 | 991.2 |
| 20260509113335 | 57 | 305 | 5.0 | 6.0 | 0.00 | 0.21 | 0.06 | 59 | 991.5 |
| 20260509111932 | 57 | 335 | 6.0 | 4.0 | 0.00 | 0.21 | 0.06 | 58 | 991.7 |
| 20260509110527 | 58 | 304 | 5.0 | 3.0 | 0.00 | 0.21 | 0.06 | 59 | 991.8 |
| 20260509105124 | 58 | 290 | 7.0 | 5.0 | 0.00 | 0.21 | 0.06 | 57 | 992.1 |
| 20260509103720 | 58 | 301 | 5.0 | 6.0 | 0.00 | 0.21 | 0.06 | 60 | 992.1 |
| 20260509102317 | 58 | 318 | 6.0 | 3.0 | 0.00 | 0.21 | 0.06 | 59 | 992.3 |
| 20260509100913 | 58 | 277 | 6.0 | 4.0 | 0.00 | 0.21 | 0.06 | 58 | 992.1 |
| 20260509095513 | 59 | 274 | 6.0 | 6.0 | 0.00 | 0.21 | 0.06 | 58 | 992.3 |
| 20260509094108 | 58 | 293 | 6.0 | 7.0 | 0.00 | 0.21 | 0.06 | 58 | 992.2 |
| 20260509092704 | 58 | 290 | 9.0 | 8.0 | 0.00 | 0.21 | 0.06 | 58 | 992.0 |
| 20260509091300 | 57 | 295 | 8.0 | 8.0 | 0.00 | 0.21 | 0.06 | 62 | 992.0 |
| 20260509085857 | 56 | 260 | 6.0 | 4.0 | 0.00 | 0.21 | 0.06 | 68 | 992.1 |
| 20260509081651 | 51 | 305 | 4.0 | 5.0 | 0.00 | 0.21 | 0.06 | 100 | 991.8 |
| 20260509080250 | 52 | 339 | 4.0 | 4.0 | 0.00 | 0.21 | 0.06 | 100 | 991.9 |
| 20260509074842 | 52 | 222 | 2.0 | 0.0 | 0.00 | 0.21 | 0.06 | 100 | 991.7 |
| 20260509073439 | 53 | 225 | 1.0 | 0.0 | 0.00 | 0.21 | 0.06 | 100 | 991.9 |
| 20260509072035 | 53 | 239 | 5.0 | 3.0 | 0.00 | 0.21 | 0.06 | 100 | 992.2 |
| 20260509070632 | 53 | 238 | 3.0 | 2.0 | 0.00 | 0.21 | 0.06 | 100 | 992.0 |
| 20260509065227 | 53 | 94 | 4.0 | 2.0 | 0.00 | 0.21 | 0.06 | 100 | 991.8 |
| 20260509063825 | 53 | 257 | 1.0 | 2.0 | 0.00 | 0.21 | 0.06 | 100 | 991.7 |
| 20260509062424 | 54 | 302 | 0.0 | 0.0 | 0.00 | 0.21 | 0.06 | 100 | 991.5 |
| 20260509061017 | 54 | 346 | 1.0 | 0.0 | 0.00 | 0.21 | 0.06 | 100 | 991.4 |
| 20260509055616 | 55 | 34 | 0.0 | 0.0 | 0.00 | 0.21 | 0.06 | 100 | 991.3 |
| 20260509054213 | 55 | 70 | 5.0 | 6.0 | 0.00 | 0.21 | 0.06 | 100 | 991.0 |
| 20260509052813 | 55 | 104 | 1.0 | 3.0 | 0.00 | 0.21 | 0.06 | 100 | 991.3 |
| 20260509051409 | 56 | 153 | 1.0 | 2.0 | 0.00 | 0.21 | 0.06 | 100 | 991.3 |
| 20260509050006 | 56 | 77 | 3.0 | 3.0 | 0.00 | 0.21 | 0.06 | 100 | 991.2 |
| 20260509044604 | 56 | 49 | 5.0 | 6.0 | 0.00 | 0.21 | 0.06 | 100 | 991.4 |
| 20260509043202 | 56 | 8 | 5.0 | 3.0 | 0.00 | 0.21 | 0.06 | 100 | 991.6 |
| 20260509041759 | 57 | 39 | 9.0 | 7.0 | 0.00 | 0.21 | 0.06 | 100 | 991.7 |
| 20260509040353 | 57 | 82 | 8.0 | 10.0 | 0.00 | 0.21 | 0.06 | 100 | 991.6 |
| 20260509033546 | 57 | 65 | 10.0 | 8.0 | 0.00 | 0.21 | 0.06 | 100 | 991.8 |
| 20260509032143 | 58 | 63 | 9.0 | 9.0 | 0.00 | 0.21 | 0.06 | 100 | 991.8 |
| 20260509030739 | 58 | 51 | 9.0 | 6.0 | 0.00 | 0.21 | 0.06 | 98 | 991.7 |
| 20260509025336 | 58 | 86 | 10.0 | 11.0 | 0.00 | 0.21 | 0.06 | 96 | 991.7 |
| 20260509023932 | 59 | 49 | 9.0 | 10.0 | 0.00 | 0.21 | 0.06 | 95 | 991.6 |
| 20260509022529 | 59 | 46 | 10.0 | 12.0 | 0.00 | 0.21 | 0.06 | 93 | 991.3 |
| 20260509021126 | 59 | 60 | 9.0 | 8.0 | 0.00 | 0.21 | 0.06 | 92 | 991.3 |
| 20260509015721 | 59 | 69 | 9.0 | 11.0 | 0.00 | 0.21 | 0.06 | 92 | 991.4 |
| 20260509014317 | 60 | 96 | 9.0 | 9.0 | 0.00 | 0.21 | 0.06 | 93 | 991.4 |
| 20260509012914 | 60 | 83 | 8.0 | 12.0 | 0.00 | 0.21 | 0.06 | 94 | 991.5 |
| 20260509011509 | 61 | 82 | 8.0 | 9.0 | 0.00 | 0.21 | 0.06 | 89 | 991.6 |
| 20260509010106 | 62 | 45 | 6.0 | 5.0 | 0.00 | 0.21 | 0.06 | 83 | 991.8 |
| 20260509004702 | 61 | 23 | 6.0 | 7.0 | 0.00 | 0.21 | 0.06 | 84 | 991.8 |
| 20260509003259 | 60 | 17 | 6.0 | 7.0 | 0.00 | 0.21 | 0.06 | 87 | 991.6 |
| 20260509001855 | 60 | 28 | 10.0 | 7.0 | 0.00 | 0.21 | 0.06 | 87 | 991.6 |
| 20260509000451 | 60 | 52 | 7.0 | 5.0 | 0.00 | 0.21 | 0.06 | 90 | 991.9 |
| 20260508235047 | 60 | 28 | 6.0 | 9.0 | 0.00 | 0.21 | 0.06 | 93 | 992.2 |
| 20260508233644 | 59 | 30 | 10.0 | 10.0 | 0.00 | 0.21 | 0.06 | 94 | 992.0 |
| 20260508232239 | 59 | 32 | 5.0 | 5.0 | 0.00 | 0.21 | 0.06 | 96 | 992.5 |
| 20260508230836 | 59 | 3 | 5.0 | 4.0 | 0.00 | 0.21 | 0.06 | 98 | 992.6 |
| 20260508225432 | 58 | 13 | 5.0 | 5.0 | 0.00 | 0.21 | 0.06 | 100 | 992.9 |
| 20260508224029 | 58 | 1 | 6.0 | 5.0 | 0.00 | 0.21 | 0.06 | 100 | 992.7 |
| 20260508222624 | 57 | 347 | 5.0 | 6.0 | 0.00 | 0.21 | 0.06 | 100 | 992.8 |
| 20260508221222 | 57 | 312 | 5.0 | 4.0 | 0.00 | 0.21 | 0.06 | 100 | 992.7 |
| 20260508215818 | 56 | 346 | 5.0 | 3.0 | 0.00 | 0.21 | 0.06 | 100 | 992.8 |
| 20260508214418 | 55 | 330 | 3.0 | 5.0 | 0.00 | 0.21 | 0.06 | 100 | 992.6 |
| 20260508213013 | 54 | 291 | 4.0 | 4.0 | 0.00 | 0.21 | 0.06 | 100 | 992.5 |
| 20260508211610 | 55 | 335 | 2.0 | 3.0 | 0.00 | 0.21 | 0.06 | 100 | 992.4 |
| 20260508210206 | 55 | 349 | 4.0 | 4.0 | 0.00 | 0.21 | 0.06 | 100 | 992.1 |
| 20260508204802 | 55 | 340 | 3.0 | 6.0 | 0.00 | 0.21 | 0.06 | 100 | 992.0 |
| 20260508203404 | 54 | 301 | 3.0 | 3.0 | 0.00 | 0.21 | 0.06 | 100 | 991.7 |
| 20260508201959 | 54 | 314 | 5.0 | 6.0 | 0.00 | 0.21 | 0.06 | 100 | 991.4 |
| 20260508200553 | 54 | 305 | 2.0 | 2.0 | 0.00 | 0.21 | 0.06 | 100 | 991.2 |
| 20260508195152 | 54 | 347 | 4.0 | 4.0 | 0.02 | 0.21 | 0.06 | 100 | 991.3 |
| 20260508193747 | 54 | 323 | 3.0 | 1.0 | 0.02 | 0.21 | 0.06 | 100 | 991.2 |
| 20260508192344 | 54 | 311 | 2.0 | 2.0 | 0.02 | 0.21 | 0.06 | 100 | 991.1 |
| 20260508190940 | 54 | 340 | 4.0 | 5.0 | 0.02 | 0.21 | 0.06 | 100 | 991.1 |